Weather History for KEWR - April, 2013

Change the Weather History Date:

Wednesday, April 17, 2013

  Actual Average Record
Temperature  
Mean Temperature 63 °F 54 °F  
Max Temperature 72 °F 63 °F 97 °F (2002)
Min Temperature 54 °F 44 °F 30 °F (1980)
Degree Days  
Heating Degree Days 2 12  
Month to date heating degree days 219 250  
Since 1 July heating degree days 4358 4594  
Cooling Degree Days 0 0  
Month to date cooling degree days 3 0  
Year to date cooling degree days 3 1  
Growing Degree Days 14 (Base 50)    
Moisture  
Dew Point 43 °F    
Average Humidity 52    
Maximum Humidity 84    
Minimum Humidity 20    
Precipitation  
Precipitation 0.02 in 0.13 in 1.20 in (1954)
Month to date precipitation 1.18 2.47  
Year to date precipitation 10.52 13.07  
Snow  
Snow 0.00 in 0.00 in 0.00 in (2002)
Month to date snowfall 0.0 0.7  
Since 1 July snowfall 29.5 28.3  
Snow Depth 0.00 in    
Sea Level Pressure  
Sea Level Pressure 30.19 in    
Wind  
Wind Speed 7 mph (NNW)    
Max Wind Speed 18 mph    
Max Gust Speed 25 mph    
Visibility 10 miles    
Events Rain    
T = Trace of Precipitation, MM = Missing Value Source: NWS Daily Summary

Daily Weather History Graph

Daily Weather History Graph

Search for Another Location

Airport or City:

Trip Planner

Search our weather history database for the weather conditions in past years. The results will help you decide how hot, cold, wet, or windy it might be!

Date:

Astronomy

Apr. 17, 2013 Rise Set
Actual Time 6:14 AM EDT 7:38 PM EDT
Civil Twilight 5:46 AM EDT 8:06 PM EDT
Nautical Twilight 5:11 AM EDT 8:41 PM EDT
Astronomical Twilight 4:35 AM EDT 9:17 PM EDT
Moon 11:25 AM EDT (4/17) 1:15 AM EDT (4/17)
Length of Visible Light 14h 20m
Length of Day
13h 23m
Waxing Crescent, 42% of the Moon is Illuminated
Apr 17
Waxing Crescent
Apr 18
First Quarter
Apr 25
Full
May 2
Last Quarter
May 9
New

Hourly Weather History & Observations

Time (EDT) Temp. Dew Point Humidity Pressure Visibility Wind Dir Wind Speed Gust Speed Precip Events Conditions
12:51 AM 62.1 °F 53.1 °F 72% 30.12 in 10.0 mi SW 12.7 mph - N/A   Overcast
1:51 AM 62.1 °F 54.0 °F 75% 30.12 in 10.0 mi SW 11.5 mph - N/A   Overcast
2:51 AM 62.1 °F 54.0 °F 75% 30.12 in 10.0 mi WSW 6.9 mph - N/A   Overcast
3:23 AM 60.8 °F 55.4 °F 82% 30.12 in 10.0 mi WSW 6.9 mph - 0.00 in   Overcast
3:51 AM 61.0 °F 55.0 °F 81% 30.12 in 10.0 mi WSW 6.9 mph - 0.00 in   Overcast
4:51 AM 62.1 °F 55.9 °F 80% 30.12 in 10.0 mi WSW 9.2 mph - N/A   Overcast
5:51 AM 60.1 °F 53.1 °F 78% 30.12 in 10.0 mi North 15.0 mph - 0.00 in Rain Light Rain
6:00 AM 57.2 °F 51.8 °F 82% 30.12 in 10.0 mi NNW 13.8 mph - 0.01 in Rain Light Rain
6:46 AM 57.2 °F 50.0 °F 77% 30.16 in 10.0 mi North 13.8 mph - 0.02 in Rain Light Rain
6:51 AM 57.0 °F 50.0 °F 77% 30.16 in 10.0 mi NNW 12.7 mph - 0.02 in Rain Light Rain
7:51 AM 57.0 °F 45.0 °F 64% 30.21 in 10.0 mi North 15.0 mph - 0.00 in   Overcast
8:07 AM 57.2 °F 44.6 °F 63% 30.21 in 10.0 mi North 13.8 mph - N/A   Overcast
8:51 AM 57.9 °F 45.0 °F 62% 30.22 in 10.0 mi NNW 8.1 mph - N/A   Mostly Cloudy
9:51 AM 57.9 °F 42.1 °F 56% 30.22 in 10.0 mi NNE 9.2 mph - N/A   Mostly Cloudy
10:51 AM 62.1 °F 37.0 °F 39% 30.22 in 10.0 mi NNW 8.1 mph 16.1 mph N/A   Mostly Cloudy
11:51 AM 66.0 °F 36.0 °F 33% 30.21 in 10.0 mi NNW 9.2 mph 16.1 mph N/A   Mostly Cloudy
12:51 PM 68.0 °F 33.1 °F 27% 30.19 in 10.0 mi NNW 4.6 mph 16.1 mph N/A   Mostly Cloudy
1:51 PM 72.0 °F 30.0 °F 21% 30.19 in 10.0 mi North 8.1 mph - N/A   Mostly Cloudy
2:51 PM 72.0 °F 28.9 °F 20% 30.20 in 10.0 mi NNW 10.4 mph - N/A   Scattered Clouds
3:51 PM 71.1 °F 33.1 °F 25% 30.18 in 10.0 mi North 8.1 mph - N/A   Partly Cloudy
4:51 PM 69.1 °F 34.0 °F 27% 30.18 in 10.0 mi ENE 6.9 mph - N/A   Scattered Clouds
5:51 PM 70.0 °F 35.1 °F 28% 30.20 in 10.0 mi Variable 5.8 mph - N/A   Scattered Clouds
6:51 PM 68.0 °F 37.0 °F 32% 30.22 in 10.0 mi East 4.6 mph - N/A   Scattered Clouds
7:51 PM 62.1 °F 39.0 °F 43% 30.23 in 10.0 mi SE 5.8 mph - N/A   Mostly Cloudy
8:51 PM 61.0 °F 37.9 °F 42% 30.25 in 10.0 mi SE 4.6 mph - N/A   Scattered Clouds
9:51 PM 57.9 °F 39.0 °F 49% 30.28 in 10.0 mi Calm Calm - N/A   Partly Cloudy
10:51 PM 57.9 °F 41.0 °F 53% 30.27 in 10.0 mi ENE 3.5 mph - N/A   Partly Cloudy
11:51 PM 57.0 °F 39.0 °F 51% 30.29 in 10.0 mi Calm Calm - N/A   Partly Cloudy